Location: Azul
(36.7830°S, 59.8500°W)
Time: 02:13:06
(UTC-03:00)

ISS - Pass Details

Date: 13 June 2019
Orbit: 407 x 418 km, 51.6° (Epoch: 27 June)

Event Time Altitude Azimuth Distance (km) Brightness Sun altitude
Exits shadow 07:08:55 19° 263° (W) 1,077 -2.3 -11.9°
Maximum altitude 07:10:40 31° 312° (NW) 766 -2.7 -11.5°
Drops below altitude 10° 07:13:40 10° 16° (NNE) 1,484 -0.4 -11.0°
Sets 07:15:52 0° 27° (NNE) 2,336 0.8 -10.6°
